LNR032 LFRE-LFLI

Flight info

Callsign LNR032
Flight time 1h 21m
Altitude 28000
Route NTS UN741 ANG DCT PAS
Aircraft TBM8/L-SBDFGRWY/S

Departure

Time 2026-04-18 05:33
Airport La Baule-Escoublac Airport (LFRE)

Arrival

Time 2026-04-18 06:55
Airport Annemasse Airfield (LFLI)
Time Latitude Longitude Altitude Speed Heading
2026-04-18 05:24 47.28782 -2.35273 108 ft 0 kts 106°
2026-04-18 05:30 47.28789 -2.35261 106 ft 3 kts
2026-04-18 05:30 47.28797 -2.35272 107 ft 2 kts 300°
2026-04-18 05:30 47.28847 -2.35284 107 ft 10 kts 13°
2026-04-18 05:31 47.28896 -2.35261 108 ft 0 kts 25°
2026-04-18 05:32 47.28898 -2.35260 108 ft 2 kts 18°
2026-04-18 05:32 47.28940 -2.35246 108 ft 4 kts 38°
2026-04-18 05:32 47.28935 -2.35191 108 ft 16 kts 104°
2026-04-18 05:32 47.28851 -2.34776 107 ft 69 kts 106°
2026-04-18 05:33 47.28661 -2.33911 215 ft 98 kts 101°
2026-04-18 05:33 47.28444 -2.32936 561 ft 101 kts 107°
2026-04-18 05:33 47.28183 -2.31945 957 ft 103 kts 90°
2026-04-18 05:33 47.28428 -2.31059 1360 ft 96 kts 30°
2026-04-18 05:34 47.29082 -2.31132 1692 ft 106 kts 328°
2026-04-18 05:34 47.29527 -2.32109 1937 ft 131 kts 295°
2026-04-18 05:34 47.29755 -2.33340 2621 ft 113 kts 277°
2026-04-18 05:34 47.29739 -2.34083 2902 ft 118 kts 274°
2026-04-18 05:35 47.29530 -2.35357 3103 ft 143 kts 239°
2026-04-18 05:35 47.28651 -2.36063 3416 ft 160 kts 182°
2026-04-18 05:35 47.27655 -2.35270 3631 ft 174 kts 125°
2026-04-18 05:35 47.27372 -2.33622 4066 ft 168 kts 81°
2026-04-18 05:36 47.27721 -2.31993 4460 ft 168 kts 71°
2026-04-18 05:36 47.27928 -2.30283 4854 ft 173 kts 86°
2026-04-18 05:36 47.27771 -2.28510 5249 ft 177 kts 104°
2026-04-18 05:36 47.27459 -2.26743 5624 ft 180 kts 105°
2026-04-18 05:37 47.27146 -2.24949 6008 ft 182 kts 106°
2026-04-18 05:37 47.26833 -2.23129 6398 ft 184 kts 107°
2026-04-18 05:37 47.26522 -2.21312 6771 ft 186 kts 107°
2026-04-18 05:37 47.26203 -2.19455 7130 ft 188 kts 107°
2026-04-18 05:38 47.25881 -2.17579 7500 ft 189 kts 108°
2026-04-18 05:38 47.25558 -2.15690 7868 ft 191 kts 108°
2026-04-18 05:38 47.25228 -2.13781 8232 ft 193 kts 109°
2026-04-18 05:38 47.24896 -2.11856 8600 ft 195 kts 109°
2026-04-18 05:39 47.24562 -2.09917 8971 ft 197 kts 109°
2026-04-18 05:39 47.24224 -2.07957 9332 ft 199 kts 109°
2026-04-18 05:39 47.23882 -2.05978 9696 ft 200 kts 110°
2026-04-18 05:39 47.23537 -2.03983 10070 ft 202 kts 110°
2026-04-18 05:40 47.23189 -2.01974 10409 ft 203 kts 110°
2026-04-18 05:40 47.22839 -1.99954 10743 ft 205 kts 110°
2026-04-18 05:40 47.22485 -1.97920 11079 ft 206 kts 110°
2026-04-18 05:40 47.22128 -1.95862 11415 ft 208 kts 110°
2026-04-18 05:41 47.21773 -1.93821 11755 ft 209 kts 110°
2026-04-18 05:41 47.21411 -1.91745 12088 ft 210 kts 110°
2026-04-18 05:41 47.21046 -1.89651 12430 ft 212 kts 110°
2026-04-18 05:41 47.20679 -1.87546 12772 ft 213 kts 110°
2026-04-18 05:42 47.20307 -1.85424 13104 ft 215 kts 111°
2026-04-18 05:42 47.19934 -1.83289 13459 ft 216 kts 111°
2026-04-18 05:42 47.19557 -1.81139 13813 ft 218 kts 111°
2026-04-18 05:42 47.19176 -1.78970 14162 ft 220 kts 111°
2026-04-18 05:43 47.18793 -1.76785 14480 ft 221 kts 111°
2026-04-18 05:43 47.18406 -1.74591 14805 ft 222 kts 111°
2026-04-18 05:43 47.18018 -1.72384 15122 ft 223 kts 110°
2026-04-18 05:43 47.17627 -1.70158 15428 ft 225 kts 110°
2026-04-18 05:44 47.17233 -1.67932 15728 ft 226 kts 110°
2026-04-18 05:44 47.16836 -1.65686 16021 ft 227 kts 111°
2026-04-18 05:44 47.16477 -1.63427 16318 ft 229 kts 101°
2026-04-18 05:44 47.16597 -1.61083 16626 ft 232 kts 78°
2026-04-18 05:45 47.17240 -1.58915 16925 ft 232 kts 55°
2026-04-18 05:45 47.18203 -1.57007 17231 ft 233 kts 52°
2026-04-18 05:45 47.19152 -1.55112 17531 ft 234 kts 52°
2026-04-18 05:45 47.20110 -1.53185 17834 ft 235 kts 52°
2026-04-18 05:46 47.21083 -1.51237 18139 ft 236 kts 52°
2026-04-18 05:46 47.22055 -1.49290 18443 ft 237 kts 52°
2026-04-18 05:46 47.23033 -1.47329 18708 ft 238 kts 52°
2026-04-18 05:46 47.24016 -1.45353 18961 ft 240 kts 52°
2026-04-18 05:47 47.25002 -1.43373 19216 ft 241 kts 52°
2026-04-18 05:47 47.25995 -1.41378 19466 ft 242 kts 52°
2026-04-18 05:47 47.26993 -1.39370 19721 ft 244 kts 52°
2026-04-18 05:47 47.27996 -1.37350 19970 ft 245 kts 52°
2026-04-18 05:48 47.29006 -1.35315 20218 ft 246 kts 52°
2026-04-18 05:48 47.30021 -1.33268 20473 ft 248 kts 52°
2026-04-18 05:48 47.31040 -1.31211 20725 ft 249 kts 52°
2026-04-18 05:48 47.32063 -1.29146 20976 ft 251 kts 52°
2026-04-18 05:49 47.33099 -1.27052 21228 ft 252 kts 52°
2026-04-18 05:49 47.34134 -1.24959 21478 ft 253 kts 52°
2026-04-18 05:49 47.35176 -1.22852 21699 ft 256 kts 52°
2026-04-18 05:49 47.36228 -1.20720 21940 ft 257 kts 53°
2026-04-18 05:50 47.37283 -1.18581 22184 ft 258 kts 52°
2026-04-18 05:50 47.38344 -1.16429 22449 ft 259 kts 52°
2026-04-18 05:50 47.39403 -1.14277 22713 ft 260 kts 52°
2026-04-18 05:50 47.40467 -1.12115 22954 ft 261 kts 52°
2026-04-18 05:51 47.41536 -1.09942 23199 ft 262 kts 52°
2026-04-18 05:51 47.42610 -1.07757 23441 ft 263 kts 53°
2026-04-18 05:51 47.43676 -1.05587 23677 ft 265 kts 53°
2026-04-18 05:51 47.44761 -1.03374 23890 ft 266 kts 53°
2026-04-18 05:52 47.45845 -1.01161 24089 ft 267 kts 53°
2026-04-18 05:52 47.46938 -0.98931 24282 ft 268 kts 53°
2026-04-18 05:52 47.48021 -0.96720 24476 ft 269 kts 52°
2026-04-18 05:52 47.49122 -0.94467 24676 ft 270 kts 53°
2026-04-18 05:53 47.50223 -0.92213 24875 ft 271 kts 52°
2026-04-18 05:53 47.51331 -0.89946 25071 ft 272 kts 52°
2026-04-18 05:53 47.52388 -0.87626 25215 ft 274 kts 63°
2026-04-18 05:53 47.52994 -0.84966 25354 ft 275 kts 83°
2026-04-18 05:54 47.53112 -0.83105 25477 ft 273 kts 96°
2026-04-18 05:54 47.52854 -0.80351 25637 ft 269 kts 112°
2026-04-18 05:54 47.52393 -0.77648 25806 ft 271 kts 111°
2026-04-18 05:54 47.51950 -0.74928 26000 ft 272 kts 111°
2026-04-18 05:55 47.51498 -0.72207 26186 ft 273 kts 111°
2026-04-18 05:55 47.51037 -0.69475 26372 ft 274 kts 111°
2026-04-18 05:55 47.50577 -0.66738 26554 ft 275 kts 111°
2026-04-18 05:55 47.50115 -0.63982 26735 ft 276 kts 111°
2026-04-18 05:56 47.49650 -0.61217 26920 ft 277 kts 111°
2026-04-18 05:56 47.49184 -0.58448 27107 ft 278 kts 111°
2026-04-18 05:56 47.48715 -0.55671 27288 ft 279 kts 111°
2026-04-18 05:56 47.48245 -0.52885 27470 ft 280 kts 111°
2026-04-18 05:57 47.47294 -0.47282 27823 ft 282 kts 112°
2026-04-18 05:57 47.46818 -0.44472 27998 ft 283 kts 112°
2026-04-18 05:57 47.46338 -0.41649 28166 ft 284 kts 112°
2026-04-18 05:58 47.45844 -0.38782 28175 ft 291 kts 112°
2026-04-18 05:58 47.45338 -0.35853 28175 ft 298 kts 111°
2026-04-18 05:58 47.44831 -0.32887 28175 ft 304 kts 111°
2026-04-18 05:59 47.43781 -0.26742 28172 ft 310 kts 111°
2026-04-18 05:59 47.42712 -0.20533 28170 ft 313 kts 111°
2026-04-18 06:00 47.41635 -0.14297 28171 ft 314 kts 111°
2026-04-18 06:00 47.40560 -0.08091 28169 ft 315 kts 111°
2026-04-18 06:01 47.39468 -0.01806 28170 ft 315 kts 111°
2026-04-18 06:01 47.38375 0.04460 28160 ft 315 kts 111°
2026-04-18 06:02 47.37282 0.10705 28166 ft 313 kts 111°
2026-04-18 06:02 47.36185 0.16923 28162 ft 315 kts 111°
2026-04-18 06:03 47.35073 0.23219 28164 ft 319 kts 111°
2026-04-18 06:03 47.33947 0.29588 28166 ft 322 kts 111°
2026-04-18 06:04 47.32818 0.35940 28162 ft 325 kts 111°
2026-04-18 06:04 47.31667 0.42394 28164 ft 326 kts 111°
2026-04-18 06:05 47.30509 0.48872 28166 ft 327 kts 111°
2026-04-18 06:05 47.29360 0.55273 28174 ft 328 kts 111°
2026-04-18 06:06 47.28190 0.61771 28172 ft 329 kts 111°
2026-04-18 06:06 47.27010 0.68290 28174 ft 329 kts 111°
2026-04-18 06:07 47.25827 0.74815 28172 ft 330 kts 111°
2026-04-18 06:07 47.24653 0.81261 28176 ft 330 kts 111°
2026-04-18 06:08 47.23455 0.87818 28167 ft 330 kts 111°
2026-04-18 06:08 47.22260 0.94333 28157 ft 330 kts 111°
2026-04-18 06:09 47.21059 1.00859 28158 ft 331 kts 111°
2026-04-18 06:09 47.19854 1.07390 28158 ft 331 kts 112°
2026-04-18 06:10 47.18644 1.13910 28159 ft 331 kts 112°
2026-04-18 06:10 47.17428 1.20450 28159 ft 331 kts 112°
2026-04-18 06:11 47.16214 1.26956 28163 ft 330 kts 111°
2026-04-18 06:11 47.14998 1.33453 28166 ft 329 kts 111°
2026-04-18 06:12 47.13779 1.39939 28167 ft 329 kts 111°
2026-04-18 06:12 47.12557 1.46420 28171 ft 329 kts 112°
2026-04-18 06:13 47.11331 1.52897 28170 ft 329 kts 112°
2026-04-18 06:13 47.10103 1.59370 28177 ft 329 kts 112°
2026-04-18 06:14 47.08878 1.65794 28187 ft 328 kts 111°
2026-04-18 06:14 47.07646 1.72240 28185 ft 328 kts 111°
2026-04-18 06:15 47.06412 1.78674 28186 ft 327 kts 111°
2026-04-18 06:15 47.05175 1.85103 28190 ft 327 kts 111°
2026-04-18 06:16 47.03935 1.91522 28178 ft 327 kts 111°
2026-04-18 06:16 47.02701 1.97893 28179 ft 327 kts 111°
2026-04-18 06:17 47.01455 2.04302 28178 ft 327 kts 111°
2026-04-18 06:17 47.00216 2.10649 28180 ft 326 kts 111°
2026-04-18 06:18 46.98968 2.17026 28190 ft 326 kts 111°
2026-04-18 06:18 46.97717 2.23404 28190 ft 325 kts 111°
2026-04-18 06:19 46.96461 2.29773 28198 ft 325 kts 111°
2026-04-18 06:19 46.95205 2.36135 28199 ft 325 kts 111°
2026-04-18 06:20 46.93943 2.42492 28199 ft 324 kts 111°
2026-04-18 06:20 46.92684 2.48823 28201 ft 324 kts 111°
2026-04-18 06:21 46.91423 2.55144 28200 ft 323 kts 111°
2026-04-18 06:21 46.90159 2.61459 28200 ft 323 kts 111°
2026-04-18 06:22 46.88894 2.67753 28201 ft 323 kts 111°
2026-04-18 06:22 46.87626 2.74048 28201 ft 323 kts 111°
2026-04-18 06:23 46.86353 2.80340 28204 ft 323 kts 111°
2026-04-18 06:23 46.85077 2.86636 28202 ft 323 kts 110°
2026-04-18 06:24 46.83807 2.92881 28202 ft 323 kts 110°
2026-04-18 06:24 46.82525 2.99156 28202 ft 323 kts 111°
2026-04-18 06:25 46.81240 3.05439 28203 ft 322 kts 111°
2026-04-18 06:25 46.79952 3.11710 28204 ft 322 kts 111°
2026-04-18 06:26 46.78658 3.17988 28200 ft 323 kts 111°
2026-04-18 06:26 46.77377 3.24189 28200 ft 322 kts 111°
2026-04-18 06:27 46.76079 3.30451 28203 ft 322 kts 110°
2026-04-18 06:27 46.74787 3.36662 28204 ft 322 kts 110°
2026-04-18 06:28 46.73484 3.42908 28204 ft 322 kts 110°
2026-04-18 06:28 46.72177 3.49155 28203 ft 322 kts 110°
2026-04-18 06:29 46.70868 3.55398 28205 ft 322 kts 111°
2026-04-18 06:29 46.69553 3.61639 28208 ft 322 kts 111°
2026-04-18 06:30 46.68237 3.67873 28207 ft 322 kts 111°
2026-04-18 06:30 46.66927 3.74056 28204 ft 322 kts 111°
2026-04-18 06:31 46.65604 3.80283 28204 ft 322 kts 111°
2026-04-18 06:31 46.64276 3.86512 28207 ft 322 kts 111°
2026-04-18 06:32 46.62947 3.92729 28204 ft 322 kts 111°
2026-04-18 06:32 46.61615 3.98949 28202 ft 322 kts 111°
2026-04-18 06:33 46.60273 4.05179 28201 ft 322 kts 110°
2026-04-18 06:33 46.58952 4.11311 28200 ft 322 kts 111°
2026-04-18 06:34 46.57610 4.17517 28201 ft 322 kts 111°
2026-04-18 06:34 46.56263 4.23721 28200 ft 322 kts 111°
2026-04-18 06:35 46.54911 4.29937 28199 ft 322 kts 111°
2026-04-18 06:35 46.53557 4.36139 28196 ft 322 kts 111°
2026-04-18 06:36 46.52201 4.42336 28196 ft 322 kts 111°
2026-04-18 06:36 46.50848 4.48491 28197 ft 322 kts 111°
2026-04-18 06:37 46.49477 4.54709 28007 ft 328 kts 111°
2026-04-18 06:37 46.48768 4.57885 27788 ft 334 kts 111°
2026-04-18 06:37 46.48048 4.61121 27551 ft 339 kts 111°
2026-04-18 06:37 46.47316 4.64416 27219 ft 346 kts 110°
2026-04-18 06:38 46.46570 4.67765 26907 ft 351 kts 110°
2026-04-18 06:38 46.45813 4.71154 26590 ft 355 kts 110°
2026-04-18 06:38 46.45052 4.74569 26277 ft 356 kts 110°
2026-04-18 06:38 46.44291 4.77995 25967 ft 357 kts 110°
2026-04-18 06:39 46.43787 4.80256 25765 ft 357 kts 110°
2026-04-18 06:39 46.43011 4.83728 25448 ft 357 kts 110°
2026-04-18 06:39 46.42249 4.87122 25148 ft 358 kts 110°
2026-04-18 06:39 46.41478 4.90553 24849 ft 358 kts 110°
2026-04-18 06:40 46.40706 4.93990 24546 ft 359 kts 110°
2026-04-18 06:40 46.39931 4.97431 24250 ft 359 kts 110°
2026-04-18 06:40 46.39152 5.00881 23960 ft 360 kts 110°
2026-04-18 06:40 46.38373 5.04330 23647 ft 360 kts 110°
2026-04-18 06:41 46.37594 5.07769 23302 ft 360 kts 110°
2026-04-18 06:41 46.36811 5.11217 22953 ft 360 kts 110°
2026-04-18 06:41 46.36032 5.14648 22612 ft 359 kts 110°
2026-04-18 06:41 46.35255 5.18076 22274 ft 358 kts 110°
2026-04-18 06:42 46.34477 5.21494 21942 ft 357 kts 109°
2026-04-18 06:42 46.33702 5.24896 21611 ft 355 kts 109°
2026-04-18 06:42 46.32925 5.28297 21282 ft 354 kts 109°
2026-04-18 06:42 46.32152 5.31680 20957 ft 352 kts 110°
2026-04-18 06:43 46.31383 5.35025 20621 ft 349 kts 110°
2026-04-18 06:43 46.30623 5.38280 20232 ft 342 kts 110°
2026-04-18 06:43 46.29892 5.41528 19839 ft 336 kts 109°
2026-04-18 06:43 46.29177 5.44724 19452 ft 331 kts 109°
2026-04-18 06:44 46.28454 5.47860 19074 ft 328 kts 110°
2026-04-18 06:44 46.27725 5.51004 18707 ft 330 kts 110°
2026-04-18 06:44 46.26986 5.54140 18317 ft 330 kts 110°
2026-04-18 06:44 46.26250 5.57288 17893 ft 330 kts 110°
2026-04-18 06:45 46.25525 5.60430 17480 ft 329 kts 109°
2026-04-18 06:45 46.24801 5.63558 17069 ft 327 kts 109°
2026-04-18 06:45 46.24081 5.66661 16665 ft 325 kts 109°
2026-04-18 06:45 46.23365 5.69748 16267 ft 323 kts 109°
2026-04-18 06:46 46.22651 5.72814 15871 ft 320 kts 109°
2026-04-18 06:46 46.21951 5.75816 15485 ft 318 kts 109°
2026-04-18 06:46 46.21247 5.78832 15099 ft 316 kts 109°
2026-04-18 06:46 46.20545 5.81829 14720 ft 314 kts 109°
2026-04-18 06:47 46.19850 5.84801 14342 ft 311 kts 109°
2026-04-18 06:47 46.19149 5.87796 13966 ft 310 kts 109°
2026-04-18 06:47 46.18465 5.90691 13555 ft 308 kts 109°
2026-04-18 06:47 46.17777 5.93607 13142 ft 305 kts 109°
2026-04-18 06:48 46.17100 5.96502 12735 ft 303 kts 109°
2026-04-18 06:48 46.16539 5.99398 12291 ft 295 kts 99°
2026-04-18 06:48 46.16512 6.02257 11833 ft 278 kts 84°
2026-04-18 06:48 46.16826 6.04946 11425 ft 267 kts 79°
2026-04-18 06:49 46.17135 6.07543 11048 ft 260 kts 81°
2026-04-18 06:49 46.17388 6.10094 10670 ft 255 kts 82°
2026-04-18 06:49 46.17626 6.12550 10182 ft 232 kts 82°
2026-04-18 06:49 46.17865 6.14690 9560 ft 203 kts 80°
2026-04-18 06:50 46.18096 6.16606 8950 ft 186 kts 81°
2026-04-18 06:50 46.18290 6.18404 8354 ft 176 kts 82°
2026-04-18 06:50 46.18468 6.20123 7766 ft 170 kts 82°
2026-04-18 06:50 46.18639 6.21788 7194 ft 166 kts 83°
2026-04-18 06:51 46.18717 6.23457 6586 ft 168 kts 87°
2026-04-18 06:51 46.18772 6.25141 5931 ft 168 kts 86°
2026-04-18 06:51 46.18861 6.26793 5395 ft 161 kts 74°
2026-04-18 06:51 46.19451 6.28108 4851 ft 156 kts 36°
2026-04-18 06:52 46.20440 6.28564 4397 ft 150 kts 358°
2026-04-18 06:52 46.21331 6.27904 3989 ft 148 kts 306°
2026-04-18 06:52 46.21433 6.26421 3707 ft 168 kts 244°
2026-04-18 06:52 46.20491 6.25491 3421 ft 162 kts 193°
2026-04-18 06:53 46.19444 6.25364 3369 ft 148 kts 177°
2026-04-18 06:53 46.18455 6.25656 3234 ft 141 kts 153°
2026-04-18 06:53 46.17749 6.26527 3081 ft 130 kts 124°
2026-04-18 06:53 46.17397 6.27565 2780 ft 110 kts 106°
2026-04-18 06:54 46.17306 6.28608 2583 ft 103 kts 71°
2026-04-18 06:54 46.17814 6.29126 2539 ft 96 kts 354°
2026-04-18 06:54 46.18420 6.28583 2099 ft 112 kts 326°
2026-04-18 06:54 46.18892 6.27676 1722 ft 108 kts 298°
2026-04-18 06:55 46.19185 6.26855 1629 ft 77 kts 297°
2026-04-18 06:55 46.19343 6.26420 1627 ft 29 kts 301°
2026-04-18 06:55 46.19422 6.26350 1625 ft 11 kts 25°
2026-04-18 06:55 46.19488 6.26398 1625 ft 10 kts 26°
2026-04-18 06:56 46.19524 6.26440 1627 ft 5 kts 62°
2026-04-18 06:56 46.19537 6.26475 1627 ft 3 kts 62°
2026-04-18 06:56 46.19540 6.26485 1625 ft 0 kts 61°
2026-04-18 06:56 46.19544 6.26494 1628 ft 5 kts 60°
2026-04-18 06:57 46.19572 6.26551 1629 ft 5 kts 22°
2026-04-18 06:57 46.19584 6.26522 1625 ft 2 kts 206°
2026-04-18 06:57 46.19573 6.26529 1627 ft 0 kts 151°